www.pogodaiklimat.ru

Погода и климат >> Архив погоды >> Боливия >> Сан-Хоакин


ПОГОДА в Сан-Хоакине

  • Прогноз погоды в Сан-Хоакине
  • Монитор погоды в Сан-Хоакине

АРХИВ ПОГОДЫ в Сан-Хоакине

Время (UTC), дата Ветер
(напр.,м/с)
 
Видим.   Явления Облачность Т
(С)
Тd
(С)
f
(%)
Тe
(С)
Тes
(С)
Комфортность P
(гПа)
Po
(гПа)
Тmin
(С)
Tmax
(С)
R
(мм)
R24
(мм)
S
(см)
15 13.08 ЮВ 8 8000 м дым ясно +29.0 +16.7 47 +32 +36 душно 1018.0 1001.7
18 13.08 Ю 8 8000 м дым ясно +32.5 +18.9 45 +38 +41 очень
душно
1016.0 999.9
21 13.08 Ю 8 8000 м дым ясно +31.5 +18.7 47 +37 +37 очень
душно
1015.0 998.9 +33.1
12 14.08 Ю 4 15 км 6/0
[Ci]
+16.5 +6.3 51 +16 +18 1019.2 1002.8 +14.7
15 14.08 Ю 8 15 км 6/0
[Ci]
+23.0 +5.7 33 +23 +26 комфорт 1020.6 1004.2
18 14.08 Ю 8 15 км 4/0
[Ci fib]
+27.3 +9.5 33 +28 +30 жарко 1018.1 1001.9
21 14.08 Ю 6 15 км ясно +27.8 +11.6 37 +29 +29 жарко 1016.2 1000.0 +29.2
12 15.08 Ю 3 8000 м дым 5/0 2000 м
[Ac trans]
+15.2 +8.2 63 +15 +16 1016.2 999.8 +13.1
15 15.08 Ю 6 7000 м дым ясно +26.0 +7.0 30 +26 +32 жарко 1016.6 1000.5
18 15.08 Ю 3 7000 м дым ясно +30.9 +10.8 29 +31 +43 жарко 1015.1 999.0
21 15.08 Ю 2 7000 м дым ясно +32.4 +14.6 34 +34 +36 очень
жарко
1013.3 997.2 +33.4
12 16.08 штиль 0 2000 м дым ясно +15.4 +14.4 94 +15 +19 1014.3 997.9 +13.7
15 16.08 ЮВ 2 5000 м дым ясно +28.8 +14.8 42 +31 +47 жарко 1016.0 999.8
18 16.08 СЗ 2 7000 м дым ясно +34.7 +16.4 34 +37 +52 опасность
солнечного
удара
1014.0 997.9
21 16.08 СЗ 2 7000 м дым ясно +34.4 +17.4 36 +38 +39 очень
душно
1012.2 996.2 +36.1
12 17.08 штиль 0 5000 м дым ясно +19.7 +17.5 87 +22 +26 комфорт 1012.4 996.1 +16.4
15 17.08 СЗ 3 5000 м дым ясно +29.5 +18.5 52 +35 +48 очень
душно
1013.8 997.6
18 17.08 СЗ 4 5000 м дым ясно +34.5 +19.0 40 +39 +49 очень
душно
1012.0 996.0
21 17.08 СЗ 4 5000 м дым ясно +33.9 +18.7 41 +39 +40 очень
душно
1010.3 994.3 +36.1
12 18.08 штиль 0 5000 м дым ясно +20.5 +19.1 92 +24 +28 комфорт 1012.4 996.2 +18.6
15 18.08 СЗ 4 5000 м дым ясно +31.6 +21.2 54 +39 +50 очень
душно
1014.4 998.3
18 18.08 СЗ 5 5000 м дым 1/1 600 м
[Cu med, cong]
+34.3 +21.6 48 +42 +49 опасность
перегрева
1013.1 997.0
21 18.08 СЗ 2 5000 м дым 1/1 600 м
[Cu med, cong]
+34.0 +21.7 49 +42 +44 опасность
перегрева
1011.0 995.0 +36.1
12 19.08 штиль 0 5000 м дым 4/1 600 м
[Cu med, cong Ci fib]
+23.5 +21.5 89 +30 +33 очень
душно
1014.5 998.2 +20.6
15 19.08 С 3 5000 м дым 3/3 600 м
[Cu med, cong]
+32.0 +22.5 57 +41 +51 опасность
перегрева
1015.4 999.3
18 19.08 С 6 5000 м дым 8/4 600 м
[Cu med, cong Ci]
+31.4 +21.9 57 +40 +43 очень
душно
1013.8 997.7
21 19.08 Ю 3 5000 м дым 9/1 600 м
[Cu med, cong Ac trans Ci]
+25.5 +22.0 81 +33 +34 очень
душно
1012.0 995.9 +33.1

 

Местоположение метеостанции Сан-Хоакин (Боливия): широта -13.06 долгота -64.81 высота над уровнем моря 140 м.

В архиве по умолчанию представлена погода в Сан-Хоакине за последнюю неделю. Архивные данные за месяц целиком и за предыдущие месяцы, начиная с января 2011 года, Вы можете получить, выбрав интересующий диапазон дат из раскрывающегося списка и нажав кнопку "Ввод!".


*Определитесь, кто Вы:
робот инопланетянин человек

Внимание! Время в таблицах - всемирное. Для получения местного времени необходимо прибавить поправку, которая равна -4 ч.

Смотрите также архив погоды в соседних городах и на ближайших метеорологических станциях:

Погода в Сан-Рамоне (Боливия) (29 км)
Погода в Магдалене (Боливия) (82 км)
Погода в Бауресе (Боливия) (102 км)
Погода в Санта-Ане (Боливия) (103 км)
Погода в Тринидаде (Боливия) (195 км)
Погода в Сан Игнасио де Moксосе (Боливия) (223 км)
Погода в Санта-Розе (Боливия) (257 км)
Погода в Риберальте (Боливия) (269 км)
Погода в Сан-Борхе (Боливия) (298 км)
Погода в Рейесе (Боливия) (311 км)

Пояснения к столбцам:

Ветер - указаны скорость ветра в м/с - средняя за 10 мин, порывы в срок и между сроками (в фигурных скобках) и направление, откуда дует ветер: С - северный, СВ - северо-восточный, В - восточный, ЮВ - юго-восточный, Ю - южный, ЮЗ - юго-западный, З - западный, СЗ - северо-западный.
Видимость - горизонтальная дальность видимости в метрах или километрах. При видимости от 1 до 10 км при отсутствии осадков обычно наблюдается дымка, при ухудшении видимости до 1 км и менее - туман. В сухую погоду видимость может ухудшаться дымом, пылью или мглою.
Явления - указаны атмосферные явления, наблюдавшиеся в срок или в последний час перед сроком; фигурными скобками обозначены явления, наблюдавшиеся между сроками (за 1-3 часа до срока); квадратными скобками обозначены град или гололедные отложения с указанием их диаметра в мм.
Облачность - указаны через наклонную черту общая и нижняя облачность в баллах и высота нижней границы облаков в метрах; квадратными скобками обозначены формы облаков: Ci - перистые, Cs - перисто-слоистые, Cc - перисто-кучевые, Ac - высококучевые, As - высокослоистые, Sc - слоисто-кучевые, Ns - слоисто-дождевые, Cu - кучевые, Cb - кучево-дождевые. Подробнее классификацию облаков см. в Атласе облаков (PDF).
T - Температура воздуха - температура, измеренная на высоте 2 м над землей.
Td - Температура точки росы - температура, при понижении до которой содержащийся в воздухе водяной пар достигнет насыщения.
f - Относительная влажность воздуха - влажноcть воздуха, измеренная на высоте 2 м над землей.
Te - Эффективная температура - температура, которую ощущает одетый по сезону человек в тени. Характеристика душности погоды. При расчете учитывается влияние влажности воздуха и скорости ветра на теплоощущения человека.
Tes - Эффективная температура на солнце - температура, которую ощущает человек, с поправкой на солнечный нагрев. Характеристика знойности погоды. Зависит от высоты солнца над горизонтом, облачности и скорости ветра. Ночью, в пасмурную погоду, а также при ветре 12 м/с и более поправка равна нулю.
P - Атмосферное давление - приведенное к уровню моря атмосферное давление.
Po - Атмосферное давление - измеренное на уровне метеостанции атмосферное давление.
Tmin - Минимальная температура - минимум температуры воздуха на высоте 2 м над землей.
Tmax - Максимальная температура - максимум температуры воздуха на высоте 2 м над землей.
R - Количество осадков - Количество выпавших осадков за период времени, мм. При наведении курсора мыши на число - период времени, за который выпало указанное количество осадков.
R24 - Количество осадков - Количество выпавших осадков за 24 часа, мм.
S - Снежный покров - Высота снежного покрова, см. При наведении курсора мыши на число - состояние снежного покрова и степень покрытия местности в баллах.